RH
96 100 79 76 76 80 19 8 9 12 14 16 16 15 17 29 41 44 30 31 40 51 56 55 33 33 27 39 97 64 84 82 64 69 81 98 77 98 86 61 81 93 89 79 78 96 77
96 97 100 99 71 98 33 9 9 10 14 16 18 15 17 24 39 42 32 29 43 57 59 58 39 36 32 82 74 45 57 63 63 63 79 95 90 83 87 92 94 91 75 84 72 97 100
87 97 98 100 78 82 35 15 9 10 13 16 19 16 16 23 36 39 30 31 43 61 61 61 46 44 39 81 46 38 52 54 60 92 88 95 98 96 97 90 85 85 75 92 89 84 97
95 100 100 97 99 97 45 25 9 10 12 14 18 13 16 23 32 40 25 40 50 64 63 60 51 48 49 62 48 42 66 97 61 75 98 88 95 98 92 97 74 96 78 73 71 91 92
99 99 100 100 93 87 42 31 11 8 11 14 15 10 16 24 32 40 27 42 58 64 60 59 47 48 92 63 58 55 52 58 56 62 97 97 97 97 86 97 91 88 87 76 74 83 79
84 100 100 100 93 76 47 33 8 7 10 12 13 10 17 27 33 33 36 42 62 65 65 67 69 62 84 92 54 57 58 65 80 55 95 99 97 97 83 99 92 86 83 73 79 69 91
88 95 100 100 88 78 34 50 9 6 8 9 9 10 17 29 35 30 37 46 66 73 71 81 73 67 99 44 38 44 52 58 86 71 94 98 95 90 95 70 74 69 61 66 72 70 88
99 99 100 100 95 83 58 47 7 6 7 8 7 11 18 31 35 33 36 49 69 70 79 90 66 50 42 41 45 79 60 73 86 94 97 98 97 99 98 88 66 64 58 73 65 74 75
100 100 99 100 99 81 60 33 6 6 6 6 6 11 18 31 32 34 36 51 74 72 94 97 69 57 52 68 91 82 68 80 93 95 98 98 99 84 89 94 91 75 61 94 88 93 83
100 100 95 100 100 77 76 24 5 6 6 5 7 12 19 32 33 30 36 60 70 72 97 99 100 72 67 87 99 88 82 82 97 94 97 97 97 88 88 81 74 78 59 66 72 66 66
100 100 100 100 100 83 83 25 4 6 5 4 8 13 21 34 32 32 40 67 68 81 91 96 80 70 83 94 95 97 85 86 89 85 81 96 95 99 98 96 86 78 64 67 68 69 71
100 100 99 100 100 88 83 24 4 6 4 4 10 16 23 34 31 34 46 68 73 98 92 84 74 93 98 89 100 94 100 94 96 83 97 98 81 71 79 91 82 96 76 75 71 66 68
100 99 100 100 100 86 82 25 3 6 4 4 12 19 23 32 32 34 50 67 92 87 83 78 85 99 95 94 97 99 80 84 98 94 99 92 89 74 87 84 72 75 68 74 82 84 78
100 100 100 100 100 88 81 23 3 5 4 6 13 20 26 28 36 37 55 66 87 94 97 77 79 90 97 92 80 82 86 92 92 82 92 89 95 88 87 90 79 79 55 62 65 77 62
99 99 100 100 100 89 82 16 3 5 5 9 15 20 25 33 39 40 52 96 87 80 80 84 88 96 84 61 75 91 92 70 80 84 91 86 97 100 84 87 79 74 71 70 65 51 60
99 100 99 100 100 89 85 11 4 4 5 11 17 20 25 36 38 45 46 69 77 84 96 84 99 90 80 63 77 81 88 68 67 70 86 91 85 95 95 84 80 78 79 62 59 73 48
99 98 100 100 100 96 81 7 5 4 6 12 16 18 26 37 42 46 74 79 78 87 82 96 87 80 73 69 71 81 83 77 62 63 70 88 87 94 97 92 85 85 88 75 62 59 70
100 99 100 100 100 100 57 4 5 4 8 14 15 16 26 35 46 51 95 65 63 83 90 86 84 83 83 82 81 84 83 82 84 73 81 85 83 93 92 76 79 77 81 76 71 67 55
100 99 100 100 100 100 31 4 5 5 9 14 15 15 26 32 49 66 64 67 68 81 88 86 87 86 87 88 88 89 89 76 79 81 90 94 88 84 90 86 77 88 79 83 77 71 68
98 100 100 100 100 99 26 6 5 6 11 14 14 14 21 31 43 89 75 68 73 78 82 80 85 77 80 84 82 87 81 72 77 85 84 83 89 80 86 84 83 82 70 72 82 85 76
100 100 99 100 100 99 40 16 5 7 11 14 14 14 15 21 36 51 92 88 90 84 84 81 77 81 85 80 88 93 95 79 78 83 84 82 83 86 80 71 68 74 68 83 84 75 87
99 98 99 100 100 100 73 28 6 8 12 14 14 14 15 16 22 43 73 84 97 85 83 88 90 74 74 84 82 90 94 88 83 80 88 84 90 80 73 70 69 65 64 62 71 77 88
97 98 100 100 100 100 97 13 6 9 13 15 15 16 18 15 21 45 67 100 100 82 76 98 93 86 83 71 70 72 81 88 97 95 85 93 88 83 83 79 70 65 46 45 48 57 61
99 99 100 100 100 100 98 12 8 12 12 16 15 18 20 16 18 43 85 65 63 69 66 72 83 98 78 73 69 68 76 80 87 89 92 92 93 93 84 78 85 51 53 52 49 47 54
98 90 99 100 100 100 97 13 9 10 12 14 18 19 20 16 16 24 38 44 48 66 72 70 74 76 79 80 78 81 79 78 72 70 74 90 89 87 79 75 63 51 55 53 48 37 43
100 100 100 100 100 100 98 62 47 13 12 14 20 19 21 18 14 13 19 28 48 62 75 73 77 85 85 87 90 87 81 77 88 70 65 71 75 82 82 82 70 56 57 54 46 44 54
97 99 100 100 100 100 99 61 98 16 13 14 19 20 21 22 18 15 15 20 24 45 71 74 86 89 88 85 93 83 77 76 64 74 74 79 84 82 84 88 78 65 63 63 63 71 75
94 99 99 100 100 100 99 97 62 11 12 14 18 19 22 22 21 20 22 22 22 27 39 44 80 89 88 94 86 81 82 79 68 62 73 82 84 81 81 88 86 66 65 58 69 75 72
98 99 99 100 100 100 99 100 74 18 11 12 17 20 25 25 23 25 26 26 28 30 29 33 53 69 82 86 92 80 84 83 73 71 72 72 68 65 68 69 75 71 73 66 66 67 71
Wind_Speed
26 31 30 28 32 35 33 31 32 33 33 33 32 31 30 25 23 16 17 20 20 18 17 15 13 9 8 8 7 18 10 13 12 17 33 22 30 29 32 37 30 32 20 37 37 21 26
25 30 30 36 32 35 33 32 32 34 34 34 33 32 30 26 23 16 16 20 19 15 14 14 12 10 9 8 10 15 12 15 12 15 23 23 24 31 26 19 30 28 26 21 32 42 16
23 26 25 35 29 34 32 32 33 34 35 34 34 34 30 25 21 15 16 19 18 13 11 13 12 11 11 9 16 12 12 13 10 11 19 34 28 32 24 20 28 13 30 16 26 41 29
25 30 30 32 30 35 33 33 32 34 35 35 34 34 29 23 19 16 16 18 15 11 10 12 11 10 10 13 13 11 8 15 6 16 14 37 32 33 28 16 26 21 28 32 32 22 24
28 28 29 34 31 33 30 32 32 33 34 34 34 34 28 22 17 15 16 16 13 9 9 11 8 7 4 11 10 9 10 10 8 11 14 24 37 32 32 23 29 30 25 34 25 25 20
31 28 29 31 30 33 27 30 31 32 33 33 34 32 25 20 15 14 16 15 10 6 7 10 6 6 4 8 9 8 11 9 7 13 7 16 27 30 37 26 25 27 21 28 21 34 25
35 32 29 30 28 31 26 29 30 30 31 33 33 29 23 18 14 13 15 12 7 3 6 12 8 7 8 12 10 8 8 7 6 9 8 9 20 29 32 41 27 22 28 22 21 16 19
38 31 26 29 28 31 26 28 28 29 30 32 32 26 20 16 12 12 14 13 5 2 5 12 7 7 7 6 6 7 4 2 3 7 7 10 11 29 22 22 24 18 27 23 25 20 17
43 33 26 28 29 29 25 26 26 27 27 30 30 23 17 13 11 11 12 10 3 3 4 11 11 9 8 8 2 9 3 2 2 7 12 6 14 32 29 20 16 27 25 18 18 14 10
46 37 28 27 28 26 25 24 24 25 26 28 27 19 15 11 10 11 11 6 2 3 1 10 10 10 11 10 10 5 2 8 9 13 12 6 12 26 23 17 19 23 25 19 18 14 8
51 37 30 28 26 25 24 23 23 23 24 27 23 16 12 9 9 9 8 3 5 4 2 12 10 11 15 14 9 8 8 12 11 15 3 7 9 17 19 17 16 12 23 18 14 13 7
48 41 33 27 26 23 24 23 21 21 22 24 20 14 10 8 8 7 5 4 4 3 3 9 8 11 9 10 13 11 13 16 18 16 5 8 14 18 18 6 13 17 22 15 12 6 3
45 42 36 30 29 21 23 21 20 19 19 21 17 12 10 7 6 6 1 3 5 5 2 7 8 10 11 9 20 20 13 7 8 7 12 8 14 17 15 12 14 19 19 5 2 1 3
49 44 36 28 24 19 22 20 18 18 17 18 14 10 8 6 4 4 2 6 5 4 3 4 10 11 9 8 15 19 13 10 11 15 9 6 3 13 17 13 8 18 16 5 4 4 5
43 40 36 29 19 19 22 19 16 16 15 14 11 9 5 4 1 2 3 6 4 6 8 7 8 8 7 8 10 9 10 9 7 10 5 4 3 13 18 15 13 17 20 5 2 3 6
44 37 34 26 21 19 22 17 14 14 13 12 9 6 3 2 3 3 3 6 6 6 6 5 4 5 6 12 8 8 5 2 5 8 6 4 6 13 17 16 15 12 11 4 1 2 1
45 44 39 27 23 19 21 15 12 12 11 10 8 5 2 2 4 5 6 7 9 8 10 7 4 7 6 8 5 8 3 2 4 7 5 8 2 10 11 11 12 8 9 3 3 2 1
44 42 33 29 24 20 19 13 10 10 9 8 6 4 1 5 7 6 6 9 8 7 7 10 10 6 2 4 3 2 2 1 4 8 7 6 4 6 13 11 14 14 11 9 4 4 4
40 41 38 31 24 20 16 11 8 8 8 6 5 3 2 6 7 7 8 9 9 11 9 8 6 9 9 3 2 2 3 2 3 12 10 9 5 6 2 8 15 17 15 14 15 15 9
47 39 37 30 25 20 17 10 8 7 7 4 4 1 3 6 6 11 10 11 10 11 11 8 8 8 6 2 5 3 3 4 7 10 10 10 9 5 3 3 7 23 23 20 17 10 19
44 39 34 32 27 22 19 14 9 7 7 4 4 1 1 4 9 11 11 8 10 10 10 11 10 10 7 2 3 4 3 2 9 7 7 8 4 10 10 7 8 12 14 17 25 31 21
44 38 37 30 29 18 20 16 9 8 7 4 3 3 2 3 7 11 15 15 12 13 12 11 8 10 9 5 7 3 1 2 4 10 5 5 3 5 8 10 13 16 17 18 22 27 33
47 37 27 29 28 22 27 14 11 10 7 4 3 4 3 3 8 12 10 13 14 14 14 13 14 9 12 9 8 7 10 10 7 4 8 6 4 4 3 7 10 14 19 22 25 26 24
30 30 30 26 32 22 27 14 11 9 7 6 5 5 5 4 7 14 14 14 12 15 15 14 13 12 8 8 7 5 7 7 9 9 9 6 7 5 5 7 3 5 8 12 15 18 21
42 39 34 27 28 28 29 16 11 9 9 8 7 6 6 5 8 8 12 14 13 14 16 14 15 12 9 9 7 2 2 5 7 10 12 14 8 4 4 6 16 16 12 14 15 17 13
34 35 27 31 29 29 29 28 12 8 10 10 9 7 9 6 8 7 11 10 12 14 16 16 15 14 12 11 8 4 5 2 1 5 9 15 12 9 3 2 3 8 13 14 11 13 12
44 43 32 27 31 26 23 27 26 13 12 12 11 9 10 8 7 7 10 10 9 14 13 16 17 16 14 13 8 5 3 6 3 4 6 2 9 16 14 9 9 14 20 21 8 6 8
42 38 27 25 30 22 23 28 22 16 14 13 11 10 10 9 8 8 6 7 9 12 14 7 15 18 15 12 11 6 3 3 6 7 5 3 4 6 8 8 9 9 10 8 7 12 15
35 26 28 31 19 20 17 21 19 13 15 15 13 12 13 11 9 9 7 5 5 9 12 12 12 11 17 14 12 9 5 4 4 3 7 7 14 10 9 4 10 15 16 16 23 25 19
Wind_Direction
330 324 328 329 325 337 333 337 334 333 336 339 340 337 334 331 328 312 304 311 317 316 314 321 315 313 343 347 321 306 289 285 247 231 217 204 192 188 201 206 197 224 216 225 220 218 219
316 313 323 319 325 330 328 334 335 332 334 337 338 338 335 333 329 316 309 312 316 314 314 320 308 299 323 334 297 306 300 277 277 236 215 196 180 190 201 209 187 216 202 227 221 227 200
309 312 317 309 317 320 324 329 334 332 331 336 338 337 337 334 329 320 314 315 322 318 315 320 305 298 311 286 305 309 310 290 281 212 210 194 184 185 185 173 190 205 201 214 218 220 215
291 299 307 306 317 314 316 325 333 330 330 335 337 337 336 335 330 323 319 321 323 323 327 326 311 302 304 315 300 309 320 306 271 247 161 198 198 183 173 163 180 200 195 206 216 216 207
287 293 299 300 306 309 311 320 328 327 329 333 338 338 336 336 331 325 326 328 327 335 341 335 329 312 304 314 318 335 321 322 298 252 223 177 203 182 173 169 182 192 197 200 204 210 215
277 281 296 291 305 309 308 317 323 325 328 333 339 338 336 336 331 329 331 331 334 342 356 354 357 339 260 269 317 334 335 338 317 270 220 175 202 196 175 177 180 187 192 193 195 211 202
270 278 283 294 301 307 305 315 318 323 328 333 339 336 336 337 333 332 335 328 343 17 3 5 324 313 285 273 288 314 323 329 334 276 253 166 189 200 178 186 184 188 186 191 201 211 214
266 271 276 282 300 298 301 309 315 320 328 333 338 335 338 337 338 335 339 331 5 12 341 2 359 348 340 325 311 313 316 333 5 155 184 149 168 164 175 174 181 188 176 200 196 207 215
259 263 267 274 290 295 297 304 311 316 327 333 337 335 341 337 342 338 341 336 12 197 27 352 12 18 11 353 341 283 248 117 85 137 119 99 136 162 165 181 181 186 186 184 150 170 174
253 255 259 267 281 289 294 301 306 315 325 334 336 335 343 338 344 343 343 353 65 164 43 353 357 11 22 16 5 60 71 107 110 140 108 87 127 166 166 148 166 158 180 161 163 172 166
253 250 254 259 273 283 291 298 302 314 324 334 336 338 344 342 343 349 349 34 111 103 18 352 354 28 35 25 64 63 89 99 101 143 91 74 145 105 131 146 159 142 157 152 166 150 117
250 247 250 249 270 279 285 292 298 311 324 332 337 341 346 352 346 359 1 89 101 48 30 10 25 39 24 69 55 77 80 120 117 121 93 106 135 120 124 125 138 136 152 126 146 195 262
245 243 244 251 258 270 279 287 296 307 324 331 338 342 346 5 350 12 22 116 54 35 67 18 46 61 67 71 72 75 72 71 55 115 81 86 139 151 151 125 146 145 144 95 74 92 238
239 238 243 236 251 262 274 280 292 302 322 330 338 343 349 7 353 31 159 93 69 82 113 102 62 88 103 103 68 69 72 60 56 117 86 81 118 165 169 139 152 166 147 154 174 177 197
242 232 235 235 252 257 269 274 286 298 319 328 338 345 358 19 8 79 178 83 134 148 111 85 65 58 62 113 109 86 79 65 119 117 94 99 84 162 183 168 159 174 222 268 357 335 130
237 228 225 230 247 253 264 266 278 293 314 323 337 348 7 35 112 137 153 111 145 168 141 106 51 61 113 121 104 87 63 89 117 125 92 92 99 168 169 171 174 183 197 192 175 82 221
228 220 226 221 233 240 257 257 270 287 309 317 334 340 3 134 130 157 117 122 142 149 141 133 108 97 111 124 136 77 81 320 255 203 162 106 100 179 197 182 171 190 182 155 150 340 301
222 221 216 215 227 232 248 248 262 283 301 312 324 333 200 165 147 146 125 153 152 171 167 138 130 122 121 149 104 65 79 263 28 168 156 142 125 129 208 219 209 210 209 208 160 221 255
228 221 214 214 218 225 235 235 253 275 289 304 321 326 166 173 146 158 155 160 158 154 153 145 138 155 157 151 172 174 203 266 141 163 149 148 151 135 210 250 231 225 213 209 226 242 250
212 221 210 213 212 216 229 228 239 262 271 281 307 278 190 183 188 160 175 168 170 172 172 173 162 153 126 125 181 248 239 201 191 179 172 167 168 197 183 171 211 227 231 227 224 233 230
205 214 205 211 207 211 220 227 224 246 247 242 296 196 220 187 193 182 168 186 181 181 184 169 169 154 145 155 135 150 205 187 195 174 168 176 186 217 239 260 234 235 243 233 226 239 232
205 205 214 204 207 211 214 218 217 233 224 215 261 285 244 227 184 188 181 173 182 199 182 184 172 195 174 173 187 168 218 126 119 201 189 208 318 288 269 263 262 258 253 248 236 242 249
199 202 200 208 204 215 210 212 211 218 203 193 219 251 226 204 192 186 200 196 181 196 194 186 197 183 210 214 213 228 194 195 174 230 223 240 255 300 285 261 286 275 263 255 256 256 257
189 205 205 203 215 207 202 208 206 193 198 182 209 215 203 198 194 194 196 207 202 198 203 202 190 174 213 204 204 209 206 225 223 207 200 227 229 240 283 299 248 270 290 282 266 263 262
186 192 198 215 218 210 199 196 192 186 192 188 203 203 204 189 209 204 197 202 203 204 216 213 203 212 200 186 170 151 261 284 268 256 232 228 211 261 247 269 294 303 266 283 282 277 262
187 183 190 206 214 210 209 197 184 178 188 190 199 204 200 200 203 185 185 182 192 199 211 218 211 207 202 196 170 191 203 194 187 290 254 246 230 224 232 274 279 317 314 315 305 296 262
189 193 188 209 208 210 216 209 202 191 186 189 200 199 197 204 185 180 175 182 189 195 202 213 207 205 201 203 196 220 225 193 207 238 301 281 235 241 251 265 262 267 285 299 285 288 282
186 186 189 202 201 206 215 214 178 177 182 189 196 194 192 180 180 167 165 171 194 211 217 205 194 204 197 192 210 202 214 231 249 240 262 237 242 239 238 245 264 279 296 291 285 295 296
187 191 198 194 190 194 212 185 170 186 185 187 193 189 189 176 182 165 158 165 195 224 227 212 198 188 190 185 196 193 167 246 265 285 259 262 240 257 250 263 273 280 287 290 294 298 289